THOR ABLESTAR DEB, 656

Orbit data source: Space-Track

THOR ABLESTAR DEB, 656 is space debris in LEO originally from a launch on Thu, 29 Jun 1961 UTC launched from the Air Force Eastern Test Range (AFETR). Debris objects in space refer to the collection of defunct objects orbiting the Earth. Examples of debris include non-operational satellites, rocket bodies, and fragments generated from explosions, collisions, or faulty payload assembly.

Loading next visibility...
Identifier
656, 1961-015HH
Orbit
LEO
Country
Flag of USUS
Related business
Manufacturer
Unknown
Mission
Spacecraft
Bus & Motor
Unknown
Mass
Unknown
Launch date (UTC)
1961-06-29 (65 years ago)
Launch vehicle
Unknown
Launch site
Air Force Eastern Test Range (AFETR)
Object type
Payload
Rocket body
Debris
Shape & HBR
Unknown shape, 0.2 m
Radar Cross Section
Small (<0.1 m²)

Expand to show TLE details & history
Last TLE update: 7 hours ago

TLE from 7 hours ago
0 THOR ABLESTAR DEB
1   656U 61015HH  26129.79536412  .00000819  00000-0  17750-2 0  9997
2   656  66.2919 282.1989 0653296 141.0606 223.9390 12.72925517962118
Epoch: 2026-05-09T19:05Z
TLE epoch observation values (Epoch: 2026-05-09T19:05:19.459Z)
Latitude
-0.00005°
Longitude
128.26013°
Altitude
1,751.372 km
Speed
6.83 km/s
True Right ascension
18h 48m 47s
True Declination
0° 00' 00"
Sunlit
Object was in daylight at epoch
Visualization orbit readout
Latitude
Unknown
Longitude
Unknown
Altitude
Unknown
Speed
Unknown
Apparent Right ascension
Unknown
Apparent Declination
Unknown
Sunlit
N/A
Visualization observer readout
Local Sidereal Time
09:46:39
Azimuth
Unknown
Elevation
Unknown
Doppler factor
Unknown
Orbital elements
Apogee altitude
1,874.667 km
Perigee altitude
862.488 km
Semi-major axis
7,746.714 km
Eccentricity
0.06533
Inclination
66.2919°
RAAN
282.1989°
Arg. of periapsis
141.0606°
True anomaly
219.03938°
Mean anomaly
223.939°
Eccentric anomaly
221.46067°
Mean motion
3.18322 °/min
Orbital period
113.09 mins
BSTAR
0.001775
Loading maneuver chart data...
Computing Atmospheric mass density...

Documentation

Showing up to 5 results
|